Orbital Elements at Epoch 2459200.5 (2020-Dec-17.0) TDB
Reference: JPL 42 (heliocentric ecliptic J2000)
Element | Value | Uncertainty (1-sigma) | Units |
e | .1434910934938996 | 1.7528e-08 | |
a | 2.568859302657261 | 1.0366e-08 | au |
q | 2.200250872286994 | 4.6489e-08 | au |
i | 13.5786930401033 | 5.7058e-07 | deg |
node | 131.5103721023584 | 5.5754e-06 | deg |
peri | 120.945767580599 | 9.4205e-06 | deg |
M | 252.574232651753 | 8.9912e-06 | deg |
tp | 2459649.260753271650 (2022-Mar-10.76075327) | 3.9073e-05 | TDB |
period | 1503.865182122251 4.12 | 9.1029e-06 2.492e-08 | d yr |
n | .2393831603255611 | 1.449e-09 | deg/d |
Q | 2.937467733027527 | 1.1854e-08 | au |
|
| | Orbit Determination Parameters
Additional Information
|